Starlink 30615

operational
NORAD ID: 58092 Int'l Des: 2023-160 Owner: SPXS Country: US Constellation: starlink
LEOCIRCULAR

Starlink 30615について

説明を読み込み中...

リアルタイム位置

3D地球を読み込み中...

次回通過

高度履歴

Altitude vs Time

uPlot chart will show altitude changes over time

軌道要素

1 58092U 23160T 25354.79441418 .00000621 00000-0 61027-4 0 9992
2 58092 43.0032 148.6369 0001366 265.1637 94.9050 15.02532918121053
Epoch: Dec 20, 2025 • Age: 6 hours

現在のステータス

高度 560.1 km
速度 7.58 km/s
衛星直下点 -8.09°S, 27.68°E
打ち上げ日 Oct 18, 2023
運用期間 2.1 years
タイプ internet

技術仕様

分類 Payload
質量 730.00 kg
乾燥質量 700.00 kg
総質量 730.00 kg
長さ 0.30 m
直径 4.10 m
スパン 29.00 m
形状 Box + pan
製造者 SPXS
バスタイプ Starlink V2M
フェーズステータス In Orbit
所有者/国 SPXS/US

大規模コンステレーション

Loading constellations...